Location: Kaseke
(18.0171°S, 31.0526°E)
Time: 12:11:04
(UTC+00:00)

Okean O Rocket - Pass Details

Date: 14 July 2020
Orbit: 623 x 645 km, 98.2° (Epoch: 07 August)

Event Time Altitude Azimuth Distance (km) Brightness Sun altitude
Rises 03:38:40 0° 4° (N) 2,913 5.3 -11.7°
Reaches altitude 10° 03:40:52 10° 360° (N) 2,015 4.4 -11.2°
Maximum altitude 03:45:11 56° 281° (W) 761 1.7 -10.2°
Drops below altitude 10° 03:49:34 10° 202° (SSW) 2,049 3.8 -9.3°
Sets 03:51:50 0° 198° (SSW) 2,967 4.7 -8.7°
